Location: Glion
(46.4330°N, 6.9246°E)
Time: 08:42:35
(UTC+00:00)

Cosmos 2084 Rocket - Pass Details

Date: 03 March 2021
Orbit: 527 x 653 km, 62.8° (Epoch: 14 April)

Event Time Altitude Azimuth Distance (km) Brightness Sun altitude
Rises 18:23:43 0° 319° (NW) 2,804 7.6 -11.5°
Reaches altitude 10° 18:25:55 10° 319° (NW) 1,922 6.7 -11.9°
Maximum altitude 18:30:17 86° 235° (SW) 614 3.5 -12.7°
Drops below altitude 10° 18:34:48 10° 143° (SE) 1,987 5.8 -13.4°
Enters shadow 18:35:01 - 143° (SE) 2,075 5.9 -13.5°
